UAE2YA OMDB-EDDH

Flight info

Callsign UAE2YA
Flight time N/A
Altitude 38000
Route OMDB/30R ANVIX L223 TARDI N629 BOTAM Y855 LAKLU Q204 NALKI G652 TOKRA DCT ALROK DCT BOSOB DCT ITRUX Y511 PMA/N0485F400 Z712 WEJ L677 GESON Q777 RASDA DCT OTHON DCT VAXOS DCT RDS UL609 MES DCT EVIVI L863 OKANA DCT BABIT DCT ARSIN DCT DITIS DCT KILNU DCT ABGUS DCT DIRBO/N0462F230 T902 RARUP EDDH/23
Aircraft A359/H-SDE2E3GHIJ3J4J5LM1ORWXY/LB1D1

Departure

Time N/A
Airport Dubai International Airport (OMDB)

Arrival

Time 2026-04-23 19:17
Airport Hamburg Helmut Schmidt Airport (EDDH)
Time Latitude Longitude Altitude Speed Heading
2026-04-23 18:37 50.38147 13.05110 38203 ft 469 kts 321°
2026-04-23 18:38 50.40792 13.01261 38227 ft 469 kts 321°
2026-04-23 18:38 50.45292 12.94700 38207 ft 469 kts 321°
2026-04-23 18:39 50.50139 12.87868 38227 ft 467 kts 324°
2026-04-23 18:39 50.55199 12.81366 38224 ft 466 kts 325°
2026-04-23 18:40 50.60207 12.75014 38234 ft 466 kts 325°
2026-04-23 18:40 50.65268 12.68516 38232 ft 466 kts 324°
2026-04-23 18:41 50.70238 12.62072 38232 ft 466 kts 324°
2026-04-23 18:41 50.75242 12.55553 38233 ft 466 kts 324°
2026-04-23 18:42 50.80244 12.49018 38236 ft 466 kts 324°
2026-04-23 18:42 50.85239 12.42475 38233 ft 466 kts 324°
2026-04-23 18:43 50.90232 12.35918 38235 ft 466 kts 324°
2026-04-23 18:43 50.95220 12.29347 38237 ft 466 kts 324°
2026-04-23 18:44 50.98693 12.24762 38240 ft 466 kts 324°
2026-04-23 18:44 51.03674 12.18170 38236 ft 467 kts 323°
2026-04-23 18:45 51.08655 12.11558 38235 ft 467 kts 323°
2026-04-23 18:45 51.13645 12.04914 38229 ft 467 kts 323°
2026-04-23 18:46 51.18616 11.98276 38227 ft 467 kts 323°
2026-04-23 18:46 51.23600 11.91603 38223 ft 467 kts 323°
2026-04-23 18:47 51.28575 11.84922 38223 ft 467 kts 323°
2026-04-23 18:47 51.33548 11.78223 38223 ft 468 kts 323°
2026-04-23 18:48 51.38509 11.71521 38228 ft 468 kts 323°
2026-04-23 18:48 51.43451 11.64826 38231 ft 468 kts 322°
2026-04-23 18:49 51.48421 11.58073 38233 ft 468 kts 322°
2026-04-23 18:49 51.53391 11.51298 38223 ft 468 kts 322°
2026-04-23 18:50 51.57555 11.45607 38223 ft 469 kts 322°
2026-04-23 18:50 51.63326 11.37698 38220 ft 469 kts 322°
2026-04-23 18:51 51.68285 11.30878 38218 ft 469 kts 322°
2026-04-23 18:51 51.73246 11.24036 38216 ft 469 kts 322°
2026-04-23 18:52 51.78203 11.17178 38217 ft 469 kts 322°
2026-04-23 18:52 51.83156 11.10314 38223 ft 469 kts 322°
2026-04-23 18:52 51.85828 11.07321 38219 ft 466 kts 333°
2026-04-23 18:53 51.88782 11.05308 38222 ft 462 kts 346°
2026-04-23 18:53 51.95092 11.03379 38228 ft 461 kts 353°
2026-04-23 18:54 52.01448 11.02064 38233 ft 461 kts 354°
2026-04-23 18:54 52.07814 11.00807 38088 ft 460 kts 354°
2026-04-23 18:54 52.10945 11.00165 37673 ft 457 kts 354°
2026-04-23 18:55 52.14137 10.99495 37012 ft 457 kts 354°
2026-04-23 18:55 52.17247 10.98831 36308 ft 457 kts 353°
2026-04-23 18:55 52.20442 10.98144 35579 ft 458 kts 353°
2026-04-23 18:55 52.23568 10.97469 34857 ft 459 kts 353°
2026-04-23 18:56 52.25704 10.97006 34373 ft 460 kts 353°
2026-04-23 18:56 52.29963 10.96083 33226 ft 463 kts 353°
2026-04-23 18:56 52.33165 10.95389 32342 ft 466 kts 353°
2026-04-23 18:56 52.36384 10.94690 31439 ft 469 kts 353°
2026-04-23 18:57 52.39586 10.93995 30559 ft 471 kts 353°
2026-04-23 18:57 52.42887 10.93277 29557 ft 474 kts 353°
2026-04-23 18:57 52.46151 10.92568 28762 ft 472 kts 353°
2026-04-23 18:57 52.49401 10.91860 28338 ft 471 kts 353°
2026-04-23 18:58 52.52649 10.91151 28235 ft 471 kts 353°
2026-04-23 18:58 52.59131 10.89731 28238 ft 470 kts 353°
2026-04-23 18:59 52.65550 10.88321 27715 ft 465 kts 353°
2026-04-23 18:59 52.68744 10.87618 27031 ft 461 kts 353°
2026-04-23 18:59 52.71913 10.86920 26374 ft 457 kts 353°
2026-04-23 18:59 52.75047 10.86229 25761 ft 453 kts 353°
2026-04-23 19:00 52.77151 10.85764 25458 ft 449 kts 353°
2026-04-23 19:00 52.81250 10.84858 25245 ft 449 kts 352°
2026-04-23 19:00 52.84346 10.84189 25235 ft 449 kts 353°
2026-04-23 19:00 52.87444 10.83556 25233 ft 449 kts 353°
2026-04-23 19:01 52.90536 10.82930 25234 ft 448 kts 353°
2026-04-23 19:01 52.93637 10.82301 25234 ft 448 kts 353°
2026-04-23 19:01 52.96727 10.81673 25163 ft 444 kts 353°
2026-04-23 19:01 52.99773 10.81052 24512 ft 440 kts 353°
2026-04-23 19:02 53.01792 10.80641 23894 ft 443 kts 353°
2026-04-23 19:02 53.05892 10.79802 22747 ft 442 kts 353°
2026-04-23 19:02 53.08928 10.79180 22069 ft 437 kts 353°
2026-04-23 19:02 53.11931 10.78564 21298 ft 434 kts 353°
2026-04-23 19:03 53.14907 10.77953 20636 ft 428 kts 353°
2026-04-23 19:03 53.17848 10.77348 19952 ft 424 kts 353°
2026-04-23 19:03 53.20772 10.76746 19271 ft 420 kts 352°
2026-04-23 19:03 53.23663 10.76149 18601 ft 417 kts 352°
2026-04-23 19:04 53.26527 10.75558 17867 ft 413 kts 352°
2026-04-23 19:04 53.29359 10.74971 17135 ft 409 kts 352°
2026-04-23 19:04 53.32156 10.74391 16439 ft 404 kts 352°
2026-04-23 19:04 53.34927 10.73816 15762 ft 399 kts 352°
2026-04-23 19:05 53.37665 10.73247 15084 ft 395 kts 353°
2026-04-23 19:05 53.40376 10.72682 14427 ft 390 kts 353°
2026-04-23 19:05 53.43063 10.72123 13736 ft 386 kts 353°
2026-04-23 19:05 53.45706 10.71574 13029 ft 381 kts 353°
2026-04-23 19:06 53.48321 10.71029 12335 ft 376 kts 352°
2026-04-23 19:06 53.50894 10.70493 11669 ft 371 kts 352°
2026-04-23 19:06 53.53415 10.69889 11106 ft 363 kts 348°
2026-04-23 19:06 53.55755 10.68515 10904 ft 353 kts 333°
2026-04-23 19:07 53.57733 10.66081 10725 ft 356 kts 316°
2026-04-23 19:07 53.59178 10.62676 10500 ft 360 kts 299°
2026-04-23 19:07 53.59906 10.58639 10301 ft 361 kts 281°
2026-04-23 19:07 53.59897 10.54495 10224 ft 346 kts 270°
2026-04-23 19:08 53.59936 10.50562 9978 ft 327 kts 284°
2026-04-23 19:08 53.60736 10.47137 9702 ft 307 kts 306°
2026-04-23 19:08 53.62151 10.44579 9470 ft 292 kts 321°
2026-04-23 19:08 53.63704 10.42495 9260 ft 280 kts 324°
2026-04-23 19:09 53.65218 10.40534 9069 ft 269 kts 324°
2026-04-23 19:09 53.66677 10.38656 8890 ft 259 kts 325°
2026-04-23 19:09 53.68253 10.37401 8689 ft 248 kts 349°
2026-04-23 19:09 53.69938 10.37573 8499 ft 244 kts 15°
2026-04-23 19:10 53.71358 10.39094 8323 ft 243 kts 38°
2026-04-23 19:10 53.72499 10.41185 8088 ft 241 kts 43°
2026-04-23 19:10 53.73562 10.43317 7824 ft 239 kts 44°
2026-04-23 19:10 53.74645 10.45456 7538 ft 234 kts 38°
2026-04-23 19:11 53.75973 10.46789 7209 ft 222 kts 10°
2026-04-23 19:11 53.77469 10.46714 6880 ft 216 kts 340°
2026-04-23 19:11 53.78678 10.45258 6570 ft 218 kts 310°
2026-04-23 19:11 53.79234 10.42848 6244 ft 229 kts 281°
2026-04-23 19:12 53.79193 10.41011 6025 ft 234 kts 269°
2026-04-23 19:12 53.78781 10.37416 5611 ft 235 kts 264°
2026-04-23 19:12 53.78426 10.34725 5329 ft 234 kts 264°
2026-04-23 19:12 53.78074 10.32073 5048 ft 232 kts 264°
2026-04-23 19:13 53.77825 10.30265 4853 ft 233 kts 261°
2026-04-23 19:13 53.76852 10.26974 4404 ft 242 kts 241°
2026-04-23 19:13 53.75787 10.24705 3925 ft 250 kts 235°
2026-04-23 19:13 53.74651 10.22449 3525 ft 252 kts 236°
2026-04-23 19:14 53.73539 10.20173 3167 ft 250 kts 236°
2026-04-23 19:14 53.72439 10.17919 2836 ft 245 kts 236°
2026-04-23 19:14 53.71384 10.15781 2508 ft 230 kts 237°
2026-04-23 19:14 53.70391 10.13760 2216 ft 217 kts 237°
2026-04-23 19:15 53.69756 10.12467 2031 ft 207 kts 238°
2026-04-23 19:15 53.68877 10.10678 1755 ft 187 kts 238°
2026-04-23 19:15 53.68096 10.09095 1478 ft 168 kts 239°
2026-04-23 19:15 53.67388 10.07651 1264 ft 153 kts 239°
2026-04-23 19:16 53.66711 10.06272 1057 ft 149 kts 238°
2026-04-23 19:16 53.66079 10.04990 843 ft 139 kts 238°
2026-04-23 19:16 53.65474 10.03756 667 ft 130 kts 234°
2026-04-23 19:17 53.64391 10.01572 323 ft 120 kts 236°
2026-04-23 19:17 53.63862 10.00498 155 ft 119 kts 235°
2026-04-23 19:17 53.63338 9.99413 50 ft 113 kts 230°
2026-04-23 19:17 53.62976 9.98697 51 ft 46 kts 230°
2026-04-23 19:18 53.62801 9.98486 50 ft 11 kts 194°
2026-04-23 19:18 53.62767 9.98474 51 ft 0 kts 191°
2026-04-23 19:18 53.62758 9.98473 51 ft 3 kts 187°
2026-04-23 19:18 53.62729 9.98475 52 ft 5 kts 171°
2026-04-23 19:19 53.62699 9.98555 53 ft 5 kts 67°
2026-04-23 19:19 53.62728 9.98627 53 ft 10 kts 52°
2026-04-23 19:20 53.62830 9.98835 53 ft 0 kts 52°
2026-04-23 19:21 53.62824 9.98929 53 ft 7 kts 136°
2026-04-23 19:21 53.62772 9.98982 53 ft 10 kts 152°
2026-04-23 19:22 53.62721 9.99028 53 ft 6 kts 146°
2026-04-23 19:22 53.62719 9.99075 53 ft 5 kts 72°
2026-04-23 19:22 53.62745 9.99167 53 ft 0 kts 64°